Regional Weather Roundup
Issued by NWS

Home | Current Version | Previous Version | Text Only | Print | Product List | Glossary Off
Versions: 1 2 3 4 5 6 7 8 9 10 11 12 13 14 15 16 17 18 19 20 21 22 23 24 25 26 27

000
ASUS45 KGTF 262310
RWRMT
MONTANA HOURLY WEATHER ROUNDUP
NATIONAL WEATHER SERVICE GREAT FALLS MT
500 PM MDT SUN APR 26 2015

NOTE: "FAIR" INDICATES FEW OR NO CLOUDS BELOW 12000 FEET WITH NO
SIGNIFICANT WEATHER AND/OR OBSTRUCTIONS TO VISIBILITY.

MTZ001>007-043-270000-
WEST OF THE DIVIDE

CITY           SKY/WX    TMP DP  RH WIND       PRES   REMARKS
KALISPELL      MOCLDY    56  30  37 VRB3      30.13R
MISSOULA       PTSUNNY   47  39  74 E9        30.18S
BUTTE          CLOUDY    39  29  67 NW9       30.14R
DEER LODGE       N/A     39  30  70 N7        30.20S
EUREKA           N/A     52  36  54 NW7       30.16R
HAMILTON         N/A     46  32  57 NE2       30.16S
LIBBY            N/A     54  28  37 CALM      30.15S
$$

MTZ008-052>055-270000-
SOUTHWEST MONTANA

CITY           SKY/WX    TMP DP  RH WIND       PRES   REMARKS
BOZEMAN        CLOUDY    41  37  86 W10       30.13R
DILLON         CLOUDY    41  35  79 NE10      30.11R
$$

MTZ009-010-012-014-046-048-049-054-270000-
EAST SLOPES AND CENTRAL MONTANA

CITY           SKY/WX    TMP DP  RH WIND       PRES   REMARKS
CUT BANK       CLOUDY    47  26  44 SE8       30.16S
GREAT FALLS    CLOUDY    43  27  53 NW5       30.19R
MALMSTROM AFB  PTSUNNY   42  28  56 E3        30.20S
HELENA         LGT RAIN  39  34  82 NW7       30.19R
$$

MTZ011-013-016-021-045-047-050-051-270000-
NORTH CENTRAL MONTANA

CITY           SKY/WX    TMP DP  RH WIND       PRES   REMARKS
HAVRE          CLOUDY    42  29  59 CALM      30.21S
LEWISTOWN      CLOUDY    37  30  75 NW10      30.19R WCI  30
CHINOOK          N/A     43  30  61 SW9       30.22R
FORT BENTON      N/A     45  27  49 CALM      30.23R
$$

MTZ017>020-022>042-056>058-061-062-270000-
EASTERN PLAINS

CITY           SKY/WX    TMP DP  RH WIND       PRES   REMARKS
BAKER          LGT RAIN  43  40  89 NE8       30.12R
BILLINGS       LGT RAIN  37  35  92 NE14      30.16R WCI  28
GLASGOW        CLOUDY    43  32  65 NW8       30.19R
JORDAN           N/A     42  32  67 NW14      30.20R
LIVINGSTON     CLOUDY    42  33  70 E18G26    30.10R
MILES CITY     LGT RAIN  42  38  85 N12       30.15S
SIDNEY         CLOUDY    52  34  50 NW9       30.14R
WOLF POINT     CLOUDY    48  36  63 NW9       30.17R
BIG TIMBER       N/A     37  34  87 NE9       30.15R WCI  31
FORSYTH          N/A     41  36  81 N13       30.17R
PLENTYWOOD       N/A     48  34  57 NW6       30.15R
POPLAR           N/A     48  36  61 W7        30.17S
$$

REGIONAL REPORTS...DAKOTAS

CITY           SKY/WX    TMP DP  RH WIND       PRES   REMARKS
WILLISTON      PTSUNNY   55  35  47 NW9       30.13S
MINOT          CLOUDY    48  45  89 S3        30.12S
DICKINSON      LGT RAIN  44  41  89 NE8       30.10S
BEACH          LGT RAIN  45  43  93 NE6       30.14R
CROSBY         FAIR      52  36  54 NW6       30.14S
WATFORD CITY   CLOUDY    50  37  62 SE6       30.11R
BISMARCK       CLOUDY    58  47  66 NW10      30.10R
GRAND FORKS    PTSUNNY   69  25  19 SE7       30.09F
FARGO          SUNNY     68  25  19 E9        30.09S
BUFFALO SD       N/A     48  47  96 NE14      30.00R
RAPID CITY     CLOUDY    51  45  79 CALM      30.03S
$$

REGIONAL REPORTS...WYOMING/IDAHO/WASHINGTON

CITY           SKY/WX    TMP DP  RH WIND       PRES   REMARKS
GILLETTE       LGT RAIN  41  40  96 N17       30.04R
SHERIDAN       CLOUDY    42  37  82 N7        30.10S
BUFFALO WY     CLOUDY    40  37  89 N18       30.07R
CODY           CLOUDY    37  36  93 N16       30.07S WCI  28
YELLOWSTONE LA   N/A     37  32  82 VRB3      30.04R
IDAHO FALLS    CLOUDY    51  34  52 SW10      30.03S
SALMON         CLOUDY    48  28  46 NW12      30.12R
BOISE          SUNNY     60  22  23 W15G28    30.11S
SPOKANE        PTSUNNY   54  27  35 VRB5      30.19S
$$

REGIONAL REPORTS...ALBERTA

CITY           SKY/WX    TMP DP  RH WIND       PRES   REMARKS
EDMONTON       SUNNY     48  19  32 S15       30.11S
CALGARY        MOSUNNY   55  19  24 S14G21    30.07F
LETHBRIDGE     MOSUNNY   52  27  37 S2        30.14F
MEDICINE HAT   CLOUDY    48  32  53 SW6       30.19R
$$

REGIONAL REPORTS...SASKATCHEWAN

CITY           SKY/WX    TMP DP  RH WIND       PRES   REMARKS
SWIFT CURRENT  PTSUNNY   46  34  61 NW8       30.14R
REGINA         CLOUDY    41  34  75 NW13G21   30.15S
SASKATOON      CLOUDY    39  32  75 W7        30.17R
$$



USA.gov is the U.S. government's official web portal to all federal, state and local government web resources and services.